TimeEST,TemperatureF,Dew PointF,Humidity,Sea Level PressureIn,VisibilityMPH,Wind Direction,Wind SpeedMPH,Gust SpeedMPH,PrecipitationIn,Events,Conditions,WindDirDegrees,DateUTC
12:01 AM,35.6,30.2,81,29.99,7.0,NNW,5.8,-,N/A,,Overcast,330,2013-12-02 05:01:00
12:53 AM,37.0,30.9,79,29.99,7.0,NNW,5.8,-,N/A,,Overcast,340,2013-12-02 05:53:00
1:15 AM,35.6,30.2,81,29.97,6.0,NNW,5.8,-,N/A,,Haze,330,2013-12-02 06:15:00
1:28 AM,35.6,30.2,81,29.97,6.0,NNW,5.8,-,N/A,,Haze,340,2013-12-02 06:28:00
1:53 AM,36.0,30.9,82,29.97,7.0,North,3.5,-,N/A,,Overcast,350,2013-12-02 06:53:00
2:53 AM,33.1,28.0,82,29.97,7.0,NNW,3.5,-,N/A,,Mostly Cloudy,330,2013-12-02 07:53:00
3:53 AM,33.1,28.0,82,29.97,6.0,NNW,4.6,-,N/A,,Haze,330,2013-12-02 08:53:00
4:53 AM,34.0,28.9,82,29.97,8.0,NNW,4.6,-,N/A,,Overcast,330,2013-12-02 09:53:00
5:53 AM,34.0,28.9,82,29.97,8.0,NNW,3.5,-,N/A,,Overcast,340,2013-12-02 10:53:00
6:53 AM,33.1,28.0,82,29.96,8.0,Calm,Calm,-,N/A,,Overcast,0,2013-12-02 11:53:00
7:53 AM,33.1,28.0,82,29.96,8.0,North,3.5,-,N/A,,Overcast,350,2013-12-02 12:53:00
8:53 AM,35.1,28.9,78,29.97,8.0,North,3.5,-,N/A,,Overcast,10,2013-12-02 13:53:00
9:53 AM,37.0,28.0,70,29.96,10.0,NNE,5.8,-,N/A,,Overcast,30,2013-12-02 14:53:00
10:53 AM,37.9,26.1,62,29.97,10.0,Calm,Calm,-,N/A,,Overcast,0,2013-12-02 15:53:00
11:53 AM,39.9,25.0,55,29.94,10.0,NE,9.2,-,N/A,,Overcast,40,2013-12-02 16:53:00
12:53 PM,41.0,23.0,49,29.92,10.0,NE,8.1,-,N/A,,Overcast,50,2013-12-02 17:53:00
1:53 PM,42.1,21.9,45,29.90,10.0,NE,6.9,-,N/A,,Scattered Clouds,50,2013-12-02 18:53:00
2:53 PM,42.1,21.0,43,29.90,10.0,North,4.6,-,N/A,,Partly Cloudy,10,2013-12-02 19:53:00
3:53 PM,39.9,21.0,47,29.90,10.0,North,5.8,-,N/A,,Clear,10,2013-12-02 20:53:00
4:53 PM,37.9,19.9,48,29.90,10.0,Calm,Calm,-,N/A,,Clear,0,2013-12-02 21:53:00
5:53 PM,34.0,19.9,56,29.92,10.0,Calm,Calm,-,N/A,,Clear,0,2013-12-02 22:53:00
6:53 PM,32.0,21.9,66,29.91,10.0,ENE,4.6,-,N/A,,Clear,70,2013-12-02 23:53:00
7:53 PM,33.1,21.9,64,29.91,10.0,ESE,4.6,-,N/A,,Clear,120,2013-12-03 00:53:00
8:53 PM,33.1,21.9,64,29.93,10.0,Calm,Calm,-,N/A,,Clear,0,2013-12-03 01:53:00
9:53 PM,30.0,21.0,69,29.93,10.0,Calm,Calm,-,N/A,,Clear,0,2013-12-03 02:53:00
10:53 PM,28.0,21.0,75,29.93,10.0,Calm,Calm,-,N/A,,Clear,0,2013-12-03 03:53:00
11:53 PM,27.0,21.0,78,29.92,10.0,Calm,Calm,-,N/A,,Clear,0,2013-12-03 04:53:00